{"data":{"norad_id":65814,"intl_designator":"2025-218Z","name":"STARLINK-35157","alt_names":[],"object_type":"PAYLOAD","status":"ACTIVE","operator":null,"country":"US","launch_date":"2025-09-26","launch_site_code":"AFWTR","launch_vehicle":null,"mission":null,"orbit_class":"UNKNOWN","rcs_meters":null,"size_class":null,"mass_kg":null,"dimensions":null,"purposes":["comms"],"wikipedia_slug":null,"has_3d_model":false,"image_url":null,"decayed_at":null,"tle_current":{"epoch":"2026-05-25T02:35:20.884704Z","epoch_age_seconds":69279,"freshness":"FRESH","line1":"1 65814U 25218Z   26145.10788061  .00021029  00000+0  14576-2 0  9999","line2":"2 65814  97.4535   7.9805 0001521  84.5586 275.5814 15.05638714 36475","mean_motion":15.05638714,"eccentricity":0.0001521,"inclination_deg":97.4535,"raan_deg":7.9805,"arg_perigee_deg":84.5586,"mean_anomaly_deg":275.5814,"bstar":0.0014576,"rev_number":3647,"period_min":95.640473814225,"perigee_km":548.49207239168,"apogee_km":550.59947349121,"semimajor_km":6927.6827729414,"source":"CELESTRAK","updated_at":"2026-05-25T13:38:20.941090Z"}}}